Liberia, Costa Rica

12:12 PM CST on April 28, 2017 (GMT -0600)
Daniel Oduber Quiros International

Weather History for MRLB - March, 2013

Change the Weather History Date:

Sunday, March 10, 2013

  Actual Average Record
Temperature  
Mean Temperature 83 °F -  
Max Temperature 96 °F 92 °F 98 °F (2016)
Min Temperature 70 °F 75 °F 68 °F (2006)
Cooling Degree Days 18    
Growing Degree Days 33 (Base 50)    
Moisture  
Dew Point 65 °F    
Average Humidity 50    
Maximum Humidity 78    
Minimum Humidity 25    
Precipitation  
Precipitation 0.00 in - - ()
Sea Level Pressure  
Sea Level Pressure 29.79 in    
Wind  
Wind Speed 7 mph ()    
Max Wind Speed 15 mph    
Max Gust Speed -    
Visibility 8.1 miles    
Events      
Averages and records for this station are not official NWS values.
T = Trace of Precipitation, MM = Missing Value Source: Averaged Metar Reports

Daily Weather History Graph

Daily Weather History Graph

Search for Another Location

Airport or City:

Trip Planner

Search our weather history database for the weather conditions in past years. The results will help you decide how hot, cold, wet, or windy it might be!

Date:

Astronomy

Mar. 10, 2013 Rise Set
Actual Time 5:51 AM CST 5:52 PM CST
Civil Twilight 5:30 AM CST 6:13 PM CST
Nautical Twilight 5:06 AM CST 6:38 PM CST
Astronomical Twilight 4:42 AM CST 7:02 PM CST
Moon 4:44 AM CST (3/10) 5:01 PM CST (3/10)
Length of Visible Light 12h 43m
Length of Day
12h 00m
Waning Crescent, 1% of the Moon is Illuminated
Mar 10
Waning Crescent
Mar 11
New
Mar 19
First Quarter
Mar 27
Full
Apr 2
Last Quarter

Hourly Weather History & Observations

Time (CST) Temp. Heat Index Dew Point Humidity Pressure Visibility Wind Dir Wind Speed Gust Speed Precip Events Conditions
6:00 AM 71 °F - 64 °F 74% 29.81 in 12 mi West 2.3 mph - -   Scattered Clouds
6:00 AM 71.6 °F - 64.4 °F 78% 29.79 in 6.2 mi West 2.3 mph - N/A   Scattered Clouds
7:00 AM 80.6 °F 82.3 °F 64.4 °F 58% 29.81 in - ESE 5.8 mph - N/A   Clear
8:00 AM 86.0 °F 87.3 °F 64.4 °F 48% 29.82 in - ENE 8.1 mph - N/A   Clear
9:00 AM 89 °F - 64 °F 33% 29.85 in 12 mi NE 8.1 mph - -   Clear
9:00 AM 89.6 °F 91.1 °F 64.4 °F 43% 29.83 in - NE 8.1 mph - N/A   Clear
10:00 AM 91.4 °F 92.1 °F 62.6 °F 38% 29.83 in - East 13.8 mph - N/A   Clear
11:00 AM 93.2 °F 94.1 °F 62.6 °F 36% 29.81 in - East 15.0 mph - N/A   Clear
12:00 PM 94 °F - 62 °F 25% 29.80 in 12 mi East 13.8 mph - -  
12:00 PM 93.2 °F 94.1 °F 62.6 °F 36% 29.78 in - East 13.8 mph - N/A   Clear
1:00 PM 96.8 °F 97.1 °F 60.8 °F 30% 29.76 in 6.2 mi ENE 11.5 mph - N/A   Partly Cloudy
2:00 PM 95.0 °F 97.0 °F 64.4 °F 36% 29.74 in 6.2 mi ENE 13.8 mph - N/A   Partly Cloudy
3:00 PM 91.4 °F 93.2 °F 64.4 °F 41% 29.73 in 6.2 mi West 11.5 mph - N/A   Scattered Clouds
4:00 PM 86.0 °F 88.2 °F 66.2 °F 51% 29.73 in 6.2 mi West 11.5 mph - N/A   Scattered Clouds
5:00 PM 84.2 °F 87.3 °F 68.0 °F 58% 29.74 in 6.2 mi West 11.5 mph - N/A   Partly Cloudy
6:00 PM 80.6 °F 83.2 °F 68.0 °F 65% 29.77 in - West 9.2 mph - N/A   Clear
7:00 PM 80.6 °F 83.2 °F 68.0 °F 65% 29.79 in - West 3.5 mph - N/A   Clear
8:00 PM - - - N/A% 29.81 in - Calm Calm - N/A   Clear
9:00 PM 78.8 °F - 68.0 °F 69% 29.84 in - Calm Calm - N/A   Clear
10:00 PM 77.0 °F - 68.0 °F 74% 29.85 in - Calm Calm - N/A   Clear